Location: Eschertshofen
(49.3064°N, 11.5756°E)
Time: 19:13:51
(UTC+00:00)

Iridium 26 - Pass Details

Date: 04 October 2021
Orbit: 772 x 775 km, 86.4° (Epoch: 21 October)

Event Time Altitude Azimuth Distance (km) Brightness Sun altitude
Exits shadow 19:05:03 34° 49° (NE) 1,251 6.3 -23.2°
Drops below altitude 10° 19:08:33 10° 16° (NNE) 2,332 8.1 -23.7°
Sets 19:11:00 0° 10° (N) 3,263 8.9 -24.1°
